STARLINK-11262, 62009

Orbit data source: Space-Track

STARLINK-11262, 62009 is a payload satellite owned by SpaceX/Seattle (US) in LEO that was launched on Mon, 18 Nov 2024 UTC via an FALCON 9 launch vehicle from the Air Force Western Test Range (AFWTR). Payload-class satellites include a variety of spacecraft equipped with specific instruments for various scientific and technological missions. These include communications satellites like Starlink; space stations such as the ISS; scientific satellites like the Hubble; Earth observation satellites from companies like Planet Labs, Umbra, and HawkEye 360; GPS; miniature CubeSats for education and research; and military/defense satellites.

Loading next visibility...
Identifier
62009, 2024-213B
Orbit
LEO
Country
Flag of USUS
Related business
Manufacturer
SpaceX/Seattle
Mission
Operational Commercial Communications
Bus & Motor
STARLINK V2MD, Unknown motor
Mass
960 kg wet, ~910 kg dry
Launch date (UTC)
2024-11-18 (2 years ago)
Launch vehicle
FALCON 9
Launch site
Air Force Western Test Range (AFWTR)
Object type
Payload
Rocket body
Debris
Shape & HBR
Box + 2 Pan, 18.1 m
Radar Cross Section
36.964 m², Large (>1 m²)

Expand to show TLE details & history
Last TLE update: 9 hours ago

TLE from 9 hours ago
0 STARLINK-11262
1 62009U 24213B   26237.55543873  .00139884  00000-0  11387-2 0  9994
2 62009  53.1569 289.0971 0001268  77.9436 282.1724 15.69738987101435
Epoch: 2026-08-25T13:19Z
TLE epoch observation values (Epoch: 2026-08-25T13:19:49.906Z)
Latitude
-0.00001°
Longitude
115.31805°
Altitude
360.378 km
Speed
7.694 km/s
True Right ascension
19h 16m 23s
True Declination
0° 00' 00"
Sunlit
Object was in full shadow at epoch
Visualization orbit readout
Latitude
Unknown
Longitude
Unknown
Altitude
Unknown
Speed
Unknown
Apparent Right ascension
Unknown
Apparent Declination
Unknown
Sunlit
N/A
Visualization observer readout
Local Sidereal Time
13:14:00
Azimuth
Unknown
Elevation
Unknown
Doppler factor
Unknown
Orbital elements
Apogee altitude
360.759 km
Perigee altitude
359.051 km
Semi-major axis
6,738.042 km
Eccentricity
0.00013
Inclination
53.1569°
RAAN
289.0971°
Arg. of periapsis
77.9436°
True anomaly
282.1582°
Mean anomaly
282.1724°
Eccentric anomaly
282.1653°
Mean motion
3.92412 °/min
Orbital period
91.74 mins
BSTAR
0.0011387
Loading maneuver chart data...
Computing Atmospheric mass density...
Loading historical data...
Loading historical data...
Loading historical data...
Loading historical data...
Loading historical data...
Loading historical data...
Loading historical data...

Documentation

Showing up to 5 results
|